Date String (YYYY-MM-DD hh:mm:ss) UTC,Instrument flags,Ambient pressure (hPa),Sample flow (lpm),Bypass flow (lpm),Sample temperature (°C),Ambient temperature (°C),ASC tube jacket temperature (°C),LED temperature (°C),Box temperature (°C),Sample RH (%),Span deviation,Mass concentration (μg/m³),Mass concentration (μg/m³),Mass concentration (μg/m³)
DateTimeUTC,F1_M11,P_M11,Q1_M11,Q2_M11,T1_M11,T2_M11,T3_M11,T4_M11,T5_M11,U1_M11,ZSPAN_M11,X0_M11,X2_M11,X1_M11
2021-11-27 01:00:00,,0825.5,5.00,0.00,30.1,29.1,00.0,39.1,31.8,07.5,0000.0,0001.74,0000.95,0000.55
2021-11-27 01:01:00,,0825.4,5.00,0.00,30.1,29.1,00.0,39.1,31.8,07.5,0000.0,0001.77,0000.98,0000.55
2021-11-27 01:02:00,,0825.5,5.01,0.00,30.1,29.1,00.0,39.1,31.8,07.5,0000.0,0001.68,0000.94,0000.56
2021-11-27 01:03:00,,0825.5,4.98,0.00,30.1,29.1,00.0,39.1,31.7,07.6,0000.0,0001.63,0000.92,0000.56
2021-11-27 01:04:00,,0825.5,5.01,0.00,30.0,29.1,00.0,39.1,31.7,07.6,0000.0,0001.64,0000.89,0000.56
2021-11-27 01:05:00,,0825.4,4.99,0.00,30.0,29.0,00.0,39.1,31.7,07.6,0000.0,0002.34,0000.89,0000.55
2021-11-27 01:06:00,,0825.4,4.97,0.00,30.0,29.1,00.0,39.1,31.7,07.7,0000.0,0002.16,0000.83,0000.54
2021-11-27 01:07:00,,0825.5,5.02,0.00,30.0,29.1,00.0,39.1,31.7,07.7,0000.0,0002.10,0000.82,0000.55
2021-11-27 01:08:00,,0825.5,5.00,0.00,30.0,29.1,00.0,39.1,31.7,07.7,0000.0,0002.00,0000.80,0000.54
2021-11-27 01:09:00,,0825.4,5.00,0.00,30.0,29.1,00.0,39.1,31.7,07.7,0000.0,0002.40,0000.80,0000.53
2021-11-27 01:10:00,,0825.5,5.00,0.00,30.0,29.1,00.0,39.1,31.7,07.7,0000.0,0002.69,0000.80,0000.53
2021-11-27 01:11:00,,0825.4,5.01,0.00,30.0,29.1,00.0,39.1,31.7,07.6,0000.0,0002.72,0000.78,0000.53
2021-11-27 01:12:00,,0825.4,5.00,0.00,30.0,29.2,00.0,39.1,31.7,07.7,0000.0,0003.12,0000.77,0000.53
2021-11-27 01:13:00,,0825.4,5.00,0.00,30.1,29.2,00.0,39.1,31.8,07.7,0000.0,0003.65,0000.78,0000.52
2021-11-27 01:14:00,,0825.4,5.01,0.00,30.1,29.2,00.0,39.1,31.8,07.8,0000.0,0003.62,0000.77,0000.52
2021-11-27 01:15:00,,0825.4,4.99,0.00,30.0,29.2,00.0,39.1,31.7,07.8,0000.0,0003.45,0000.74,0000.51
2021-11-27 01:16:00,,0825.4,5.00,0.00,30.1,29.2,00.0,39.1,31.7,07.8,0000.0,0002.75,0000.72,0000.51
2021-11-27 01:17:00,,0825.4,5.02,0.00,30.1,29.2,00.0,39.1,31.7,07.8,0000.0,0002.82,0000.74,0000.51
2021-11-27 01:18:00,,0825.4,4.99,0.00,30.1,29.2,00.0,39.1,31.7,07.8,0000.0,0002.92,0000.77,0000.51
2021-11-27 01:19:00,,0825.4,5.01,0.00,30.1,29.2,00.0,39.1,31.7,07.8,0000.0,0002.97,0000.78,0000.52
2021-11-27 01:20:00,,0825.4,5.01,0.00,30.0,29.1,00.0,39.1,31.7,07.9,0000.0,0002.56,0000.79,0000.51
2021-11-27 01:21:00,,0825.4,4.99,0.00,30.0,29.1,00.0,39.1,31.7,07.9,0000.0,0002.22,0000.77,0000.51
2021-11-27 01:22:00,,0825.5,5.00,0.00,30.0,29.1,00.0,39.1,31.7,07.9,0000.0,0002.08,0000.73,0000.49
2021-11-27 01:23:00,,0825.5,5.00,0.00,30.0,29.2,00.0,39.1,31.7,07.9,0000.0,0001.66,0000.72,0000.49
2021-11-27 01:24:00,,0825.5,4.99,0.00,30.1,29.2,00.0,39.1,31.8,07.9,0000.0,0001.14,0000.70,0000.49
2021-11-27 01:25:00,,0825.6,5.00,0.00,30.1,29.2,00.0,39.1,31.8,07.9,0000.0,0001.24,0000.70,0000.49
2021-11-27 01:26:00,,0825.6,5.00,0.00,30.1,29.2,00.0,39.1,31.9,07.9,0000.0,0001.46,0000.71,0000.49
2021-11-27 01:27:00,,0825.6,5.00,0.00,30.1,29.2,00.0,39.1,31.9,07.9,0000.0,0002.64,0000.73,0000.50
2021-11-27 01:28:00,,0825.6,4.98,0.00,30.1,29.2,00.0,39.1,31.8,08.0,0000.0,0002.78,0000.76,0000.50
2021-11-27 01:29:00,,0825.6,5.01,0.00,30.1,29.2,00.0,39.1,31.8,08.0,0000.0,0002.99,0000.73,0000.49
2021-11-27 01:30:00,,0825.5,4.99,0.00,30.1,29.2,00.0,39.1,31.9,08.0,0000.0,0002.94,0000.71,0000.48
2021-11-27 01:31:00,,0825.5,5.01,0.00,30.1,29.2,00.0,39.1,31.8,08.0,0000.0,0002.92,0000.69,0000.48
2021-11-27 01:32:00,,0825.6,5.00,0.00,30.1,29.2,00.0,39.1,31.8,08.0,0000.0,0002.93,0000.69,0000.49
2021-11-27 01:33:00,,0825.6,5.00,0.00,30.1,29.2,00.0,39.1,31.9,07.9,0000.0,0003.20,0000.71,0000.50
2021-11-27 01:34:00,,0825.6,5.01,0.00,30.1,29.2,00.0,39.1,31.9,07.9,0000.0,0004.05,0000.71,0000.50
2021-11-27 01:35:00,,0825.6,4.99,0.00,30.1,29.2,00.0,39.1,31.9,07.9,0000.0,0004.10,0000.69,0000.49
2021-11-27 01:36:00,,0825.5,5.02,0.00,30.1,29.2,00.0,39.1,31.9,07.9,0000.0,0004.04,0000.70,0000.48
2021-11-27 01:37:00,,0825.5,4.99,0.00,30.1,29.3,00.0,39.1,31.9,07.9,0000.0,0003.91,0000.71,0000.48
2021-11-27 01:38:00,,0825.5,5.00,0.00,30.1,29.3,00.0,39.1,31.9,07.9,0000.0,0002.81,0000.70,0000.47
2021-11-27 01:39:00,,0825.6,5.00,0.00,30.1,29.3,00.0,39.1,31.9,07.9,0000.0,0002.53,0000.66,0000.47
2021-11-27 01:40:00,,0825.6,5.01,0.00,30.1,29.3,00.0,39.1,31.9,07.9,0000.0,0002.20,0000.64,0000.47
2021-11-27 01:41:00,,0825.5,4.99,0.00,30.1,29.2,00.0,39.1,31.9,07.9,0000.0,0002.25,0000.66,0000.47
2021-11-27 01:42:00,,0825.5,5.00,0.00,30.1,29.3,00.0,39.1,31.9,07.9,0000.0,0002.24,0000.66,0000.47
2021-11-27 01:43:00,,0825.5,5.00,0.00,30.1,29.3,00.0,39.1,31.8,07.9,0000.0,0002.25,0000.66,0000.47
2021-11-27 01:44:00,,0825.5,5.01,0.00,30.1,29.2,00.0,39.1,31.7,07.9,0000.0,0002.07,0000.67,0000.47
2021-11-27 01:45:00,,0825.5,5.00,0.00,30.1,29.2,00.0,39.1,31.7,07.9,0000.0,0001.29,0000.68,0000.47
2021-11-27 01:46:00,,0825.5,5.00,0.00,30.1,29.2,00.0,39.1,31.8,07.9,0000.0,0001.22,0000.68,0000.47
2021-11-27 01:47:00,,0825.5,4.99,0.00,30.1,29.2,00.0,39.1,31.8,08.0,0000.0,0001.18,0000.67,0000.48
2021-11-27 01:48:00,,0825.5,5.01,0.00,30.1,29.2,00.0,39.1,31.8,08.0,0000.0,0001.13,0000.66,0000.48
2021-11-27 01:49:00,,0825.5,4.99,0.00,30.1,29.2,00.0,39.1,31.8,08.0,0000.0,0001.13,0000.66,0000.48
2021-11-27 01:50:00,,0825.5,5.00,0.00,30.1,29.2,00.0,39.1,31.9,08.0,0000.0,0001.15,0000.66,0000.47
2021-11-27 01:51:00,,0825.5,5.00,0.00,30.1,29.2,00.0,39.1,31.9,08.0,0000.0,0001.21,0000.70,0000.47
2021-11-27 01:52:00,,0825.4,4.99,0.00,30.1,29.2,00.0,39.1,31.9,08.0,0000.0,0001.24,0000.69,0000.47
2021-11-27 01:53:00,,0825.5,5.01,0.00,30.1,29.2,00.0,39.1,31.9,08.0,0000.0,0001.25,0000.70,0000.47
2021-11-27 01:54:00,,0825.4,4.99,0.00,30.1,29.2,00.0,39.1,31.8,08.0,0000.0,0001.43,0000.74,0000.48
2021-11-27 01:55:00,,0825.5,5.00,0.00,30.1,29.2,00.0,39.1,31.8,08.0,0000.0,0001.45,0000.72,0000.47
2021-11-27 01:56:00,,0825.5,5.00,0.00,30.1,29.2,00.0,39.1,31.9,08.0,0000.0,0001.41,0000.68,0000.46
2021-11-27 01:57:00,,0825.5,5.01,0.00,30.1,29.2,00.0,39.1,31.8,08.0,0000.0,0001.54,0000.67,0000.46
2021-11-27 01:58:00,,0825.5,5.00,0.00,30.1,29.2,00.0,39.1,31.8,07.9,0000.0,0002.58,0000.70,0000.46
2021-11-27 01:59:00,,0825.5,5.01,0.00,30.1,29.2,00.0,39.1,31.8,07.9,0000.0,0002.63,0000.72,0000.47
